TimeEDT,TemperatureF,Dew PointF,Humidity,Sea Level PressureIn,VisibilityMPH,Wind Direction,Wind SpeedMPH,Gust SpeedMPH,PrecipitationIn,Events,Conditions,WindDirDegrees,DateUTC
12:51 AM,48.0,46.0,93,30.08,10.0,NW,3.5,-,N/A,,Overcast,320,2012-10-19 04:51:00
1:51 AM,48.0,46.9,96,30.11,10.0,Calm,Calm,-,N/A,,Overcast,0,2012-10-19 05:51:00
2:07 AM,46.4,46.4,100,30.09,10.0,East,5.8,-,N/A,,Overcast,80,2012-10-19 06:07:00
2:16 AM,46.4,46.4,100,30.09,10.0,East,4.6,-,N/A,,Mostly Cloudy,90,2012-10-19 06:16:00
2:25 AM,48.2,46.4,93,30.10,10.0,Calm,Calm,-,N/A,,Mostly Cloudy,0,2012-10-19 06:25:00
2:37 AM,48.2,46.4,93,30.10,10.0,Calm,Calm,-,N/A,,Mostly Cloudy,0,2012-10-19 06:37:00
2:51 AM,48.9,46.9,93,30.10,10.0,WNW,4.6,-,N/A,,Overcast,300,2012-10-19 06:51:00
3:03 AM,48.2,46.4,93,30.10,10.0,WNW,3.5,-,N/A,,Overcast,300,2012-10-19 07:03:00
3:51 AM,50.0,48.0,93,30.08,10.0,Calm,Calm,-,N/A,,Overcast,0,2012-10-19 07:51:00
4:51 AM,51.1,48.9,92,30.06,10.0,Calm,Calm,-,N/A,,Overcast,0,2012-10-19 08:51:00
5:21 AM,51.8,48.2,88,30.05,10.0,Calm,Calm,-,N/A,,Overcast,0,2012-10-19 09:21:00
5:51 AM,50.0,48.0,93,30.06,10.0,East,3.5,-,N/A,,Overcast,80,2012-10-19 09:51:00
6:51 AM,53.1,52.0,96,30.06,6.0,Variable,3.5,-,0.01,Rain,Light Rain,0,2012-10-19 10:51:00
7:26 AM,53.6,51.8,94,30.05,4.0,NE,5.8,-,0.06,Rain,Light Rain,50,2012-10-19 11:26:00
7:49 AM,53.6,51.8,94,30.05,1.8,ENE,4.6,-,0.06,Rain,Light Rain,70,2012-10-19 11:49:00
7:51 AM,53.1,52.0,96,30.06,1.8,East,5.8,-,0.06,Rain,Light Rain,80,2012-10-19 11:51:00
8:01 AM,53.6,51.8,94,30.05,2.5,NE,4.6,-,0.00,Rain,Light Rain,50,2012-10-19 12:01:00
8:09 AM,53.6,51.8,94,30.05,4.0,NE,4.6,-,0.00,Rain,Light Rain,40,2012-10-19 12:09:00
8:51 AM,54.0,53.1,97,30.04,10.0,Variable,4.6,-,0.01,Rain,Light Rain,0,2012-10-19 12:51:00
9:15 AM,55.4,53.6,94,30.04,10.0,East,4.6,-,0.00,,Overcast,80,2012-10-19 13:15:00
9:51 AM,55.0,53.1,93,30.04,5.0,Calm,Calm,-,0.00,Rain,Light Rain,0,2012-10-19 13:51:00
10:23 AM,55.4,53.6,94,30.03,9.0,Calm,Calm,-,0.01,,Overcast,0,2012-10-19 14:23:00
10:44 AM,55.4,53.6,94,30.01,10.0,Calm,Calm,-,0.01,,Overcast,0,2012-10-19 14:44:00
10:51 AM,57.0,54.0,89,30.01,10.0,Variable,4.6,-,0.01,,Overcast,0,2012-10-19 14:51:00
11:51 AM,60.1,55.0,83,29.99,10.0,ESE,13.8,25.3,N/A,,Overcast,120,2012-10-19 15:51:00
12:51 PM,59.0,55.0,87,29.96,5.0,Variable,6.9,-,0.00,Rain,Rain,0,2012-10-19 16:51:00
1:51 PM,62.1,54.0,75,29.92,10.0,ESE,11.5,21.9,0.01,,Overcast,120,2012-10-19 17:51:00
2:51 PM,61.0,57.0,87,29.90,3.0,ESE,5.8,20.7,0.00,Rain,Light Rain,110,2012-10-19 18:51:00
3:20 PM,60.8,57.2,88,29.89,1.8,ESE,9.2,18.4,0.00,Rain,Light Rain,110,2012-10-19 19:20:00
3:22 PM,60.8,57.2,88,29.89,1.2,ESE,8.1,18.4,0.01,Rain,Rain,110,2012-10-19 19:22:00
3:34 PM,60.8,57.2,88,29.89,2.0,ESE,9.2,-,0.06,Rain,Light Rain,110,2012-10-19 19:34:00
3:51 PM,60.1,57.9,93,29.88,2.5,ESE,9.2,20.7,0.08,Rain,Light Rain,110,2012-10-19 19:51:00
3:58 PM,60.8,57.2,88,29.87,8.0,East,13.8,20.7,0.00,Rain,Light Rain,100,2012-10-19 19:58:00
4:08 PM,59.0,57.2,94,29.87,3.0,ESE,10.4,18.4,0.01,Rain,Light Rain,110,2012-10-19 20:08:00
4:28 PM,59.0,57.2,94,29.87,2.0,ESE,9.2,20.7,0.02,Rain,Light Rain,110,2012-10-19 20:28:00
4:38 PM,59.0,57.2,94,29.85,3.0,East,9.2,23.0,0.03,Rain,Light Rain,100,2012-10-19 20:38:00
4:47 PM,59.0,57.2,94,29.85,2.5,ESE,10.4,19.6,N/A,Rain,Light Rain,110,2012-10-19 20:47:00
4:51 PM,59.0,57.0,93,29.85,1.8,ESE,9.2,17.3,0.04,Rain,Light Rain,110,2012-10-19 20:51:00
4:58 PM,59.0,57.2,94,29.85,2.5,ESE,9.2,19.6,0.01,Rain,Light Rain,120,2012-10-19 20:58:00
5:04 PM,59.0,57.2,94,29.85,3.0,ESE,10.4,18.4,0.01,Rain,Light Rain,120,2012-10-19 21:04:00
5:19 PM,59.0,57.2,94,29.84,2.0,ESE,12.7,21.9,0.03,Rain,Rain,120,2012-10-19 21:19:00
5:31 PM,59.0,57.2,94,29.82,6.0,ESE,8.1,17.3,0.04,Rain,Light Rain,110,2012-10-19 21:31:00
5:51 PM,59.0,57.9,96,29.82,5.0,ESE,10.4,19.6,0.04,Rain,Light Rain,110,2012-10-19 21:51:00
6:51 PM,59.0,57.9,96,29.80,3.0,ESE,10.4,18.4,0.07,Rain,Light Rain,120,2012-10-19 22:51:00
7:11 PM,59.0,57.2,94,29.77,2.0,ESE,12.7,20.7,0.05,Rain,Heavy Rain,110,2012-10-19 23:11:00
7:20 PM,59.0,57.2,94,29.77,3.0,ESE,11.5,19.6,0.10,Rain,Light Rain,110,2012-10-19 23:20:00
7:42 PM,59.0,57.2,94,29.77,2.5,Variable,3.5,-,0.13,Rain,Rain,0,2012-10-19 23:42:00
7:46 PM,59.0,59.0,100,29.77,3.0,SSE,4.6,-,0.14,Rain-Thunderstorm,Light Rain,150,2012-10-19 23:46:00
7:51 PM,59.0,59.0,100,29.78,2.5,Variable,3.5,-,0.15,Rain-Thunderstorm,Heavy Rain,0,2012-10-19 23:51:00
7:53 PM,59.0,59.0,100,29.77,1.8,Variable,3.5,-,0.02,Rain-Thunderstorm,Heavy Rain,0,2012-10-19 23:53:00
7:58 PM,59.0,59.0,100,29.76,1.0,Calm,Calm,-,0.10,Rain-Thunderstorm,Heavy Rain,0,2012-10-19 23:58:00
8:02 PM,59.0,59.0,100,29.76,1.5,Calm,Calm,-,0.13,Rain,Light Rain,0,2012-10-20 00:02:00
8:05 PM,59.0,59.0,100,29.76,3.0,Calm,Calm,-,0.14,Rain,Light Rain,0,2012-10-20 00:05:00
8:13 PM,59.0,59.0,100,29.76,5.0,Calm,Calm,-,0.14,Rain,Light Rain,0,2012-10-20 00:13:00
8:42 PM,60.8,59.0,94,29.75,2.5,Calm,Calm,-,0.17,Rain,Light Rain,0,2012-10-20 00:42:00
8:51 PM,60.1,59.0,96,29.75,2.5,Calm,Calm,-,0.17,Rain,Light Rain,0,2012-10-20 00:51:00
9:05 PM,59.0,59.0,100,29.75,3.0,Calm,Calm,-,0.01,Rain,Light Rain,0,2012-10-20 01:05:00
9:17 PM,59.0,59.0,100,29.75,2.5,Calm,Calm,-,0.01,Rain,Light Rain,0,2012-10-20 01:17:00
9:48 PM,60.8,59.0,94,29.74,3.0,Calm,Calm,-,0.02,,Overcast,0,2012-10-20 01:48:00
9:51 PM,60.1,60.1,100,29.74,4.0,Calm,Calm,-,0.02,,Overcast,0,2012-10-20 01:51:00
10:51 PM,61.0,61.0,100,29.75,4.0,Calm,Calm,-,N/A,,Overcast,0,2012-10-20 02:51:00
11:11 PM,60.8,60.8,100,29.74,2.5,Calm,Calm,-,N/A,,Overcast,0,2012-10-20 03:11:00
11:30 PM,60.8,60.8,100,29.75,2.0,Calm,Calm,-,N/A,,Overcast,0,2012-10-20 03:30:00
11:37 PM,60.8,60.8,100,29.75,1.5,Calm,Calm,-,N/A,,Overcast,0,2012-10-20 03:37:00
11:51 PM,60.1,60.1,100,29.75,1.2,Calm,Calm,-,N/A,,Overcast,0,2012-10-20 03:51:00
11:59 PM,60.8,60.8,100,29.74,1.8,Calm,Calm,-,N/A,,Overcast,0,2012-10-20 03:59:00